Lapse_Rate
6.0 6.0 6.0 5.8 5.7 5.6 5.5 5.4 5.2 5.2 5.1 5.1 5.1 5.1 5.1 4.9 4.8 4.9 4.8 4.8 4.8 4.8 4.8 4.8 4.8 4.7 4.7 4.6 4.6 4.7 4.9 4.9
6.2 6.2 6.0 5.8 5.7 5.6 5.6 5.5 5.3 5.1 5.0 5.0 4.9 4.8 4.7 4.7 4.7 4.7 4.7 4.7 4.6 4.6 4.7 4.8 5.0 5.1 5.1 4.9 4.9 4.9 5.0 4.9
6.6 6.4 6.0 5.9 5.8 5.7 5.5 5.4 5.3 5.2 5.1 5.0 4.9 4.8 4.8 4.8 4.7 4.6 4.6 4.7 4.8 5.0 4.9 4.9 4.9 5.0 5.1 5.2 5.0 4.9 4.7 4.8
6.4 6.3 6.1 5.9 5.8 5.7 5.5 5.5 5.5 5.3 5.2 5.1 4.9 4.8 4.7 4.7 4.6 4.6 4.6 4.6 4.7 4.8 4.9 4.7 4.8 4.9 5.0 5.1 5.2 5.0 5.0 4.8
6.5 6.4 6.3 6.1 5.9 5.8 5.7 5.6 5.5 5.4 5.3 5.1 5.0 5.0 4.9 4.8 4.7 4.7 4.7 4.8 4.8 4.7 4.8 4.8 4.9 5.0 5.0 5.0 5.1 4.9 4.8 4.8
6.9 6.7 6.4 6.1 6.0 5.9 5.8 5.8 5.6 5.5 5.4 5.2 5.0 5.0 4.9 4.9 4.9 4.9 5.0 4.9 5.0 4.8 4.8 5.0 5.0 5.0 5.0 5.0 4.8 4.8 4.7 4.8
6.8 6.6 6.3 6.3 6.4 6.4 6.1 5.9 5.6 5.5 5.4 5.3 5.3 5.2 5.2 5.3 5.1 5.1 5.1 5.1 5.1 5.1 5.0 5.0 5.0 4.8 4.8 4.7 4.7 4.7 4.7 4.6
7.0 6.8 6.8 6.8 6.9 6.5 6.2 6.0 5.7 5.5 5.6 5.5 5.5 5.6 5.6 5.5 5.3 5.3 5.3 5.3 5.2 5.1 4.9 4.9 4.8 4.8 4.8 4.7 4.7 4.6 4.6 4.5
7.3 7.1 7.0 6.7 6.5 6.4 6.1 5.9 5.8 6.0 5.9 6.0 5.9 5.8 5.5 5.4 5.3 5.2 5.1 4.8 4.9 4.7 4.7 4.8 4.9 4.9 4.8 4.7 4.4 4.2 4.1 4.1
7.2 7.2 7.0 6.7 6.4 6.3 6.2 6.1 6.2 6.5 6.3 5.9 5.8 5.7 5.5 5.3 5.3 5.2 5.0 4.8 4.6 4.6 4.8 4.7 4.8 4.7 4.4 4.1 3.9 3.7 3.7 3.6
7.2 7.1 7.1 7.0 6.8 6.6 6.5 6.3 6.2 6.0 6.2 6.1 5.9 5.7 5.7 5.6 5.5 5.2 5.0 4.8 4.7 4.9 4.8 4.7 4.6 4.2 3.8 3.7 3.5 3.4 3.4 3.4
6.9 6.8 6.9 6.9 6.9 7.0 7.4 6.9 6.4 6.3 6.0 6.0 5.9 5.9 6.0 5.5 5.4 5.4 5.0 4.9 4.9 4.8 4.7 4.3 3.8 3.5 3.5 3.5 3.5 3.2 3.0 3.0
6.8 7.0 7.1 7.4 7.7 8.0 7.2 6.8 6.4 6.1 6.1 6.1 6.3 5.8 5.7 5.6 5.5 5.2 5.1 4.9 4.7 4.4 4.0 3.7 3.6 3.7 3.6 3.4 3.2 3.1 2.9 2.7
6.8 6.8 7.0 7.1 7.3 7.6 7.5 7.2 6.9 6.4 6.2 6.0 5.9 5.8 5.8 5.7 5.3 5.1 4.9 4.6 4.3 3.9 3.7 3.7 3.7 3.5 3.3 3.1 2.9 2.4 1.5 0.9
6.6 6.5 6.4 6.5 6.6 6.8 7.0 7.0 6.7 6.4 6.1 6.1 6.1 5.9 5.6 5.3 5.1 4.8 4.4 4.2 3.8 3.8 3.8 3.6 3.4 3.3 3.1 2.6 2.6 1.8 0.8 0.8
6.4 6.3 6.3 6.3 6.5 6.8 7.0 7.0 6.8 6.5 6.1 6.0 5.9 5.6 5.3 5.0 4.6 4.3 4.1 3.9 3.9 3.8 3.6 3.4 3.2 3.0 2.6 2.3 2.2 1.9 1.4 1.1
6.2 6.1 6.1 6.2 6.5 6.8 6.9 6.9 6.5 6.3 6.1 5.9 5.5 5.2 4.6 4.4 4.2 4.1 4.1 4.0 3.8 3.6 3.4 3.0 2.7 2.4 2.0 1.9 1.7 1.6 2.1 1.6
6.0 6.1 6.1 6.2 6.5 6.7 6.6 6.5 6.3 6.1 5.7 5.4 4.9 4.5 4.3 4.3 4.2 4.1 4.0 3.8 3.6 3.3 2.9 2.6 2.2 1.9 1.4 1.7 2.0 2.6 3.3 3.3
6.0 5.9 5.9 6.2 6.4 6.4 6.3 6.1 5.8 5.4 5.0 4.5 4.4 4.3 4.3 4.2 4.1 4.0 3.8 3.6 3.2 2.6 2.2 1.8 1.6 1.5 1.8 2.6 3.4 3.9 4.0 3.8
Wind_Speed
13 12 10 11 11 11 9 8 10 10 8 6 6 5 5 3 3 4 3 5 6 7 8 10 11 11 11 12 10 9 9 9
14 12 12 12 12 12 11 10 11 8 7 6 5 5 4 4 4 5 4 5 7 8 8 10 11 8 8 11 9 10 8 9
15 16 15 14 14 13 12 12 12 10 7 5 3 4 3 4 5 7 7 7 7 7 9 8 11 8 8 9 10 9 8 8
18 18 17 15 15 15 13 13 13 12 10 7 6 4 5 4 4 5 7 7 8 8 8 8 8 9 7 9 10 11 9 8
19 19 18 17 16 14 14 13 12 11 12 9 10 7 5 3 4 5 6 6 7 7 8 8 9 9 8 8 11 9 9 9
21 21 20 19 16 15 14 14 13 12 10 10 8 8 4 5 5 5 4 5 6 6 6 7 8 8 9 9 9 8 7 6
20 20 19 17 15 15 14 14 14 12 10 10 10 8 7 6 5 4 3 2 2 3 5 7 8 8 8 8 8 6 7 7
18 19 19 18 19 18 15 15 14 13 11 10 9 8 8 6 6 4 3 2 1 2 5 6 7 6 7 8 9 8 6 7
16 19 18 19 19 19 17 16 14 14 12 10 8 8 5 5 4 4 2 1 1 2 5 6 7 7 7 8 8 8 6 5
9 14 17 17 18 18 18 17 16 14 12 9 8 8 7 5 5 4 3 0 1 3 5 7 7 8 8 8 7 6 7 6
2 6 11 14 16 16 18 17 15 12 10 9 8 8 7 6 5 3 2 1 3 5 7 8 10 9 9 10 8 9 7 7
5 0 2 6 10 12 13 13 14 12 10 10 9 8 6 5 3 3 3 3 5 7 9 11 11 12 12 11 10 11 10 10
8 6 5 4 5 7 11 11 12 12 11 10 8 7 5 3 3 3 3 5 7 10 11 12 13 14 15 13 13 13 14 13
8 8 7 7 8 9 11 12 12 12 11 9 7 5 3 2 3 4 5 8 11 13 14 12 13 14 14 16 16 15 15 15
8 9 10 10 11 12 13 13 12 11 10 8 6 3 2 3 4 5 8 11 12 14 15 16 17 19 19 18 17 17 16 17
9 11 12 13 14 14 14 13 12 10 9 7 6 5 4 4 5 7 11 12 13 15 14 15 16 16 14 13 14 17 18 19
12 14 16 15 14 14 13 12 11 10 9 8 7 6 6 7 8 9 10 10 12 14 13 14 15 12 14 14 16 16 18 18
15 15 14 14 13 13 12 11 11 10 9 8 8 8 8 9 9 10 11 12 12 13 14 15 15 15 14 16 17 16 17 17
15 13 14 13 13 13 12 11 10 10 9 8 8 9 9 10 10 11 12 12 13 13 14 15 15 12 14 14 16 20 16 17
Wind_Direction
189 187 180 182 171 177 180 185 178 174 161 166 147 137 120 91 68 47 20 34 21 9 27 22 11 13 8 360 350 351 338 347
185 189 184 186 172 182 189 185 181 180 184 182 167 157 141 118 66 45 56 36 32 24 26 16 5 19 7 356 347 344 346 354
187 189 192 194 181 188 188 192 183 193 190 193 191 160 132 96 91 81 76 70 55 49 23 19 9 358 4 359 353 347 346 0
196 195 197 193 191 192 194 191 188 195 195 182 173 151 163 168 138 99 69 61 54 46 39 23 9 2 4 357 359 354 344 348
201 198 197 198 197 193 198 193 193 195 197 200 201 201 194 137 133 102 93 70 57 43 33 24 16 8 7 358 4 351 351 343
205 199 198 199 193 194 196 194 196 195 194 212 200 223 172 160 139 136 104 83 57 42 27 20 16 10 8 1 357 357 346 338
207 202 200 197 192 194 194 196 196 191 196 199 209 204 183 173 167 166 146 111 104 38 19 15 12 3 2 350 342 340 346 334
207 203 201 200 193 194 193 196 195 189 192 195 199 190 189 183 176 176 178 181 199 48 1 4 357 354 346 341 329 327 337 330
216 213 206 203 199 197 194 195 196 187 191 190 182 175 180 173 178 156 181 235 357 6 348 341 333 329 330 329 319 322 326 322
213 220 214 210 204 199 194 196 196 188 182 170 165 163 163 154 146 164 177 221 336 315 318 315 310 307 313 315 312 308 311 309
225 225 219 217 211 200 197 198 191 173 164 161 154 151 146 147 158 175 200 241 280 300 302 303 302 297 297 302 306 305 305 307
20 360 220 213 215 207 189 192 170 158 155 141 142 141 140 150 169 190 229 265 274 288 303 306 305 302 300 297 298 295 288 298
43 55 78 109 161 170 178 159 153 146 136 133 132 135 144 162 209 238 254 273 286 296 305 309 310 307 302 301 294 293 291 290
60 70 83 101 119 130 144 148 130 126 124 124 124 126 149 225 273 281 285 286 301 307 311 311 313 312 304 299 293 287 285 285
73 80 86 94 104 115 116 116 112 110 108 105 102 98 16 327 322 307 300 311 313 315 316 311 310 308 306 300 296 296 292 290
82 91 97 102 106 108 107 100 96 96 95 86 67 43 15 350 335 327 326 323 322 321 320 318 319 314 308 341 328 313 300 295
99 103 105 106 105 100 96 92 87 81 73 64 51 36 13 3 350 338 334 329 326 323 322 319 316 312 357 5 341 317 304 295
109 105 102 101 98 97 91 86 79 75 69 56 38 20 4 354 342 337 335 329 325 322 318 318 318 317 8 348 339 316 308 299
110 108 105 99 94 89 86 80 74 63 51 36 22 8 359 352 340 335 330 328 325 323 321 320 318 316 351 344 337 307 308 304